Simultaneous Nadir Overpasses (SNOs) Predictions

Prediction of SNOs between AURA and NPP Satellite Orbit:

Table of predicted SNOs for the next 14.0 days since TLE Epoch: 2/24/2012
Index Date (AURA) Time (AURA) AURA Lat,Lon Date (NPP) Time (NPP) NPP Lat,Lon Distance(km) Time Diff (sec)
1 02/26/2012 03:41:10 -79.85,-155.84 02/26/2012 03:40:41 -79.86,-155.73 2.23 29
2 02/26/2012 04:30:32 79.99, 12.94 02/26/2012 04:31:21 79.98, 12.83 2.39 49
3 02/28/2012 19:57:37 -79.86, -39.87 02/28/2012 19:57:37 -79.86, -39.95 1.52 0
4 02/28/2012 20:44:14 80.81,-167.73 02/28/2012 20:45:26 79.99,-170.03 99.93 72
5 03/02/2012 11:24:39 79.78, -92.26 03/02/2012 11:23:50 79.78, -92.24 0.38 49
6 03/02/2012 12:14:01 -79.96, 76.83 03/02/2012 12:14:30 -79.95, 76.73 2.07 29
7 03/05/2012 03:41:04 79.83, 24.01 03/05/2012 03:40:45 79.82, 23.85 3.19 19
8 03/05/2012 04:30:25 -80.04,-166.59 03/05/2012 04:31:23 -80.05,-166.56 0.64 58
9 03/07/2012 19:08:06 -79.72, -28.52 03/07/2012 19:06:59 -79.73, -28.53 0.25 67




NCC Satellite Simultaneous Nadir Overpasses (SNOs) Prediction Service
